Weather History for Hermosillo, Mexico

Change the Weather History Date:

Saturday, March 23, 2013

  Actual Average Record
Temperature  
Mean Temperature 70 °F -  
Max Temperature 86 °F 86 °F 96 °F (1998)
Min Temperature 53 °F 56 °F 50 °F (2008)
Cooling Degree Days 4    
Growing Degree Days 20 (Base 50)    
Moisture  
Dew Point 45 °F    
Average Humidity 44    
Maximum Humidity 68    
Minimum Humidity 14    
Precipitation  
Precipitation 0.00 in - - ()
Sea Level Pressure  
Sea Level Pressure 29.92 in    
Wind  
Wind Speed 3 mph ()    
Max Wind Speed 16 mph    
Max Gust Speed -    
Visibility 9.9 miles    
Events      
Averages and records for this station are not official NWS values.
T = Trace of Precipitation, MM = Missing Value Source: Averaged Metar Reports

Daily Weather History Graph

Daily Weather History Graph

Search for Another Location

Airport:

Trip Planner

Search our weather history database for the weather conditions in past years. The results will help you decide how hot, cold, wet, or windy it might be!

Date:

Astronomy

Mar. 23, 2013 Rise Set
Actual Time 6:24 AM MST 6:37 PM MST
Civil Twilight 6:00 AM MST 7:01 PM MST
Nautical Twilight 5:32 AM MST 7:28 PM MST
Astronomical Twilight 5:04 AM MST 7:56 PM MST
Moon 3:21 PM MST (3/23) 3:46 AM MST (3/23)
Length of Visible Light 13h 00m
Length of Day
12h 13m
Waxing Gibbous, 86% of the Moon is Illuminated
Mar 23
Waxing Gibbous
Mar 27
Full
Apr 2
Last Quarter
Apr 10
New
Apr 18
First Quarter

Hourly Weather History & Observations

Time (MST) Temp. Dew Point Humidity Pressure Visibility Wind Dir Wind Speed Gust Speed Precip Events Conditions
12:51 AM 62.6 °F 51.8 °F 68% 29.87 in 10.0 mi Calm Calm - N/A   Clear
1:46 AM 62.6 °F 51.8 °F 68% 29.86 in 10.0 mi Calm Calm - N/A   Clear
2:46 AM 60.8 °F 48.2 °F 63% 29.87 in 10.0 mi Calm Calm - N/A   Clear
3:45 AM 60.8 °F 48.2 °F 63% 29.86 in 10.0 mi Calm Calm - N/A   Clear
4:49 AM 59.0 °F 46.4 °F 63% 29.86 in 10.0 mi Calm Calm - N/A   Clear
5:57 AM 55.4 °F 44.6 °F 67% 29.90 in 10.0 mi Calm Calm - N/A   Clear
6:45 AM 57.2 °F 44.6 °F 63% 29.91 in 10.0 mi Calm Calm - N/A   Clear
7:35 AM 57 °F 45 °F 54% 29.94 in 7 mi NE 2.2 mph - -  
7:54 AM 64.4 °F 44.6 °F 49% 29.93 in 10.0 mi East 4.6 mph - N/A   Clear
8:52 AM 69.8 °F 44.6 °F 40% 29.96 in 10.0 mi East 9.2 mph - N/A   Clear
9:49 AM 71.6 °F 50.0 °F 46% 29.97 in 10.0 mi East 8.1 mph - N/A   Clear
10:30 AM 74 °F 56 °F 43% 29.94 in 7 mi NE 2.2 mph - -  
10:49 AM 75.2 °F 50.0 °F 41% 29.94 in 10.0 mi ESE 5.8 mph - N/A   Clear
11:52 AM 78.8 °F 44.6 °F 30% 29.96 in 10.0 mi SE 4.6 mph - N/A   Clear
12:53 PM 80.6 °F 44.6 °F 28% 29.94 in 10.0 mi SE 4.6 mph - N/A   Clear
1:45 PM 82.4 °F 41.0 °F 23% 29.90 in 10.0 mi SSW 5.8 mph - N/A   Clear
2:41 PM 84.2 °F 35.6 °F 18% 29.91 in 10.0 mi SW 4.6 mph - N/A   Clear
3:45 PM 86.0 °F 32.0 °F 14% 29.89 in 10.0 mi SSW 9.2 mph - N/A   Clear
4:45 PM 86.0 °F 35.6 °F 17% 29.88 in 12.0 mi South 6.9 mph - N/A   Clear
5:47 PM 82.4 °F 44.6 °F 26% 29.89 in 12.0 mi SSW 16.1 mph - N/A   Clear
6:45 PM 78.8 °F 44.6 °F 30% 29.90 in 10.0 mi SSW 9.2 mph - N/A   Clear
7:47 PM 73.4 °F 42.8 °F 33% 29.93 in 10.0 mi SSW 12.7 mph - N/A   Clear
8:45 PM 69.8 °F 44.6 °F 40% 29.96 in 10.0 mi South 6.9 mph - N/A   Clear
9:46 PM 68.0 °F 46.4 °F 46% 29.99 in 10.0 mi SSW 4.6 mph - N/A   Clear
10:43 PM 66.2 °F 48.2 °F 52% 29.98 in 10.0 mi Calm Calm - N/A   Clear
11:44 PM 62.6 °F 46.4 °F 55% 29.98 in 10.0 mi Calm Calm - N/A   Clear